TimeEDT,TemperatureF,Dew PointF,Humidity,Sea Level PressureIn,VisibilityMPH,Wind Direction,Wind SpeedMPH,Gust SpeedMPH,PrecipitationIn,Events,Conditions,WindDirDegrees,DateUTC
12:54 AM,69.1,64.0,84,30.15,10.0,NNE,11.5,-,N/A,,Overcast,20,2013-09-17 04:54:00
1:54 AM,69.1,64.0,84,30.15,10.0,NNE,11.5,-,N/A,,Overcast,20,2013-09-17 05:54:00
2:54 AM,68.0,62.1,81,30.14,10.0,NNE,12.7,-,N/A,,Overcast,20,2013-09-17 06:54:00
3:54 AM,66.9,60.1,79,30.14,10.0,NNE,15.0,-,N/A,,Mostly Cloudy,20,2013-09-17 07:54:00
4:54 AM,66.0,60.1,81,30.16,10.0,North,13.8,-,N/A,,Mostly Cloudy,10,2013-09-17 08:54:00
5:54 AM,64.9,59.0,81,30.17,10.0,NNE,11.5,-,N/A,,Partly Cloudy,20,2013-09-17 09:54:00
6:54 AM,64.9,59.0,81,30.19,10.0,North,17.3,-,N/A,,Scattered Clouds,10,2013-09-17 10:54:00
7:54 AM,66.0,59.0,78,30.21,10.0,North,15.0,-,N/A,,Partly Cloudy,10,2013-09-17 11:54:00
8:54 AM,68.0,59.0,73,30.23,10.0,NNE,16.1,-,N/A,,Partly Cloudy,20,2013-09-17 12:54:00
9:54 AM,71.1,60.1,68,30.25,10.0,NNE,18.4,23.0,N/A,,Partly Cloudy,30,2013-09-17 13:54:00
10:54 AM,73.0,60.1,64,30.26,10.0,NNE,19.6,-,N/A,,Mostly Cloudy,30,2013-09-17 14:54:00
11:54 AM,73.0,59.0,61,30.26,10.0,NE,21.9,26.5,N/A,,Mostly Cloudy,40,2013-09-17 15:54:00
12:54 PM,75.0,59.0,57,30.25,10.0,ENE,15.0,-,N/A,,Scattered Clouds,60,2013-09-17 16:54:00
1:54 PM,73.9,59.0,59,30.24,10.0,NE,18.4,-,N/A,,Mostly Cloudy,50,2013-09-17 17:54:00
2:54 PM,75.9,60.1,58,30.23,10.0,NE,21.9,29.9,N/A,,Partly Cloudy,40,2013-09-17 18:54:00
3:54 PM,73.9,57.9,57,30.22,10.0,NE,16.1,24.2,N/A,,Mostly Cloudy,50,2013-09-17 19:54:00
4:54 PM,73.9,55.9,53,30.22,10.0,ENE,18.4,-,N/A,,Mostly Cloudy,60,2013-09-17 20:54:00
5:54 PM,72.0,55.0,55,30.22,10.0,NE,17.3,21.9,N/A,,Mostly Cloudy,50,2013-09-17 21:54:00
6:54 PM,70.0,54.0,57,30.22,10.0,NE,15.0,-,N/A,,Partly Cloudy,50,2013-09-17 22:54:00
7:54 PM,66.9,53.1,61,30.23,10.0,NE,17.3,-,N/A,,Scattered Clouds,40,2013-09-17 23:54:00
8:54 PM,64.9,52.0,63,30.25,10.0,NE,16.1,-,N/A,,Partly Cloudy,50,2013-09-18 00:54:00
9:54 PM,64.9,53.1,65,30.26,10.0,NE,12.7,-,N/A,,Partly Cloudy,40,2013-09-18 01:54:00
10:54 PM,64.0,52.0,65,30.27,10.0,NE,15.0,-,N/A,,Partly Cloudy,40,2013-09-18 02:54:00
11:54 PM,63.0,52.0,67,30.26,10.0,NE,13.8,-,N/A,,Partly Cloudy,40,2013-09-18 03:54:00